[[{"header":{"parameterUnit":"m.s-1","parameterCategory":1,"la1":30.2991,"la2":30.254,"lo1":-89.0895,"lo2":-89.0444,"dy":0.0017,"dx":0.0017,"nx":28,"ny":28,"refTime":"2024-10-08T21:00:00:Z","depth":0,"parameterNumber":2,"parameterNumberName":"U-component_of_WINDS"},"data":[0,0,0,0,0,0,0,0,0,0,0,0,0,0,0,0,0,0,0,0,0,0,0,0,0,0,0,0,0,0,0,0,0,0,0,0,0,0,0,0,0,0,0,0,0,0,0,0,0,0,0,0,0,0,0,0,0,0,0.6709,0.6709,0,0.6717,0.6718,0.6718,0.6713,0.6713,0.6713,0.6713,0.6721,0.6722,0.6722,0,0,0,0,0,0,0,0,0,0,0,0,0,0.6691,0.6691,0.6709,0.6709,0.671,0.6717,0.6718,0.6718,0.6713,0.6713,0.6713,0.6713,0.6721,0.6722,0.6722,0,0,0,0,0,0,0,0,0,0,0,0,0,0.6699,0.6691,0.6709,0.6708,0.6708,0.6717,0.6718,0.6718,0.6713,0.6713,0.6713,0.6712,0.6721,0.6721,0.6722,0.6733,0,0,0.6724,0.6724,0,0,0,0,0,0,0,0,0.6699,0.67,0.6708,0.6708,0.6708,0.6714,0.6714,0.6723,0.6714,0.6712,0.6713,0.6712,0.6719,0.672,0.6722,0.6733,0.6733,0.6724,0.6724,0.6725,0.6725,0,0,0,0,0,0,0,0.6698,0.6699,0.6713,0.6709,0.6709,0.6708,0.6709,0.6716,0.6717,0.6712,0.6711,0.6712,0.6719,0.6721,0.6722,0.6733,0.6724,0.6725,0.6725,0.6725,0.6754,0.6755,0,0,0,0,0,0,0.6697,0.6699,0.6712,0.6713,0.6703,0.6708,0.6709,0.6713,0.6717,0.6717,0.6713,0.6712,0.6721,0.6721,0.6723,0.6736,0.6725,0.6725,0.6726,0.6754,0.6755,0.6755,0,0,0,0,0,0,0.6697,0.6699,0.6712,0.6706,0.6707,0.6709,0.6713,0.6713,0.6715,0.6718,0.6718,0.6715,0.672,0.6722,0.673,0.6736,0.6726,0.6726,0.6754,0.6754,0.6755,0.6762,0,0,0,0,0,0,0.6697,0.6699,0.6702,0.6706,0.6708,0.6719,0.6713,0.6713,0.6716,0.6716,0.672,0.672,0.672,0.6729,0.6731,0.6737,0.6727,0.6753,0.6754,0.6755,0.6761,0.6763,0.6764,0,0,0,0,0,0.6696,0.6704,0.6703,0.6704,0.6713,0.672,0.6721,0.6721,0.6717,0.6721,0.6723,0.672,0.6735,0.673,0.6732,0.6738,0.6753,0.6754,0.6754,0.6761,0.6762,0.6764,0,0,0,0,0,0,0.6701,0.6704,0.6703,0.6712,0.6716,0.6719,0.6724,0.6722,0.6727,0.6726,0.6726,0.6727,0.6736,0.6738,0.6733,0.6749,0.6743,0.6745,0.6747,0.6749,0.675,0.675,0.6727,0,0,0,0,0,0.6703,0.6708,0.6711,0.6719,0.6721,0.6722,0.6725,0.6725,0.6729,0.673,0.6732,0.6736,0.6742,0.6746,0.6751,0.6761,0.6763,0.6766,0.6768,0.6769,0.677,0.6777,0.6778,0.6758,0.6758,0.6758,0,0,0.6708,0.671,0.6714,0.672,0.6723,0.6729,0.6724,0.673,0.6735,0.6731,0.674,0.6742,0.6746,0.6756,0.676,0.6757,0.6776,0.677,0.6771,0.6771,0.6778,0.678,0.6781,0.6758,0.6758,0.6758,0,0,0.6719,0.6721,0.6729,0.6731,0.6736,0.6737,0.6738,0.6742,0.6743,0.6752,0.675,0.6755,0.6765,0.6768,0.6771,0.6785,0.6783,0.6786,0.6793,0.68,0.6801,0.6803,0.6808,0.681,0.6787,0.6787,0.6787,0,0.6724,0.6733,0.6732,0.6739,0.6743,0.674,0.6748,0.675,0.6756,0.6759,0.6756,0.6768,0.6771,0.6782,0.6785,0.6787,0.679,0.6786,0.6801,0.6803,0.6804,0.6809,0.6811,0.6788,0.6788,0.6788,0.6788,0,0.6739,0.6745,0.6751,0.6757,0.6761,0.6768,0.6769,0.6773,0.6772,0.6774,0.6783,0.6786,0.6792,0.6795,0.6794,0.6806,0.6804,0.6801,0.6796,0.6806,0.6811,0.6813,0.6788,0.6788,0.6788,0.6788,0,0,0.6754,0.676,0.6762,0.6765,0.677,0.6774,0.6782,0.6788,0.6792,0.6796,0.6802,0.6811,0.6808,0.6812,0.6812,0.6817,0.6828,0.6813,0.6814,0.6816,0.6842,0.6845,0.6847,0.6827,0.6827,0.6828,0.6842,0,0.6766,0.6779,0.6779,0.6791,0.6797,0.6795,0.6801,0.6805,0.6807,0.6812,0.6814,0.682,0.6816,0.6818,0.6824,0.6826,0.6834,0.6825,0.6834,0.6834,0.6833,0.6849,0.6852,0.6865,0.6844,0.6844,0.6845,0,0.6782,0.6787,0.6799,0.6804,0.6806,0.6812,0.6818,0.6823,0.6828,0.6829,0.6833,0.6832,0.684,0.6834,0.6846,0.684,0.6843,0.6845,0.6845,0.6846,0.684,0.6851,0.687,0.6872,0.6847,0.6847,0.6847,0,0.6792,0.6802,0.681,0.6813,0.6818,0.6823,0.6825,0.6829,0.6833,0.6839,0.6841,0.6847,0.6851,0.6856,0.6857,0.6853,0.6869,0.6863,0.687,0.687,0.6873,0.6873,0.6893,0.6875,0.6875,0.6875,0.6875,0,0.6805,0.6813,0.6815,0.6821,0.683,0.683,0.6839,0.6841,0.6845,0.6851,0.685,0.6856,0.6857,0.6863,0.6864,0.6873,0.6875,0.6876,0.6876,0.6876,0.6876,0.6879,0.6878,0.6876,0.6875,0.6875,0.6875,0,0.6818,0.682,0.6829,0.6834,0.6835,0.6842,0.6846,0.6851,0.6853,0.6861,0.6863,0.6865,0.6873,0.6874,0.6883,0.6883,0.6895,0.6894,0.6893,0.6893,0.6901,0.69,0.6923,0.6926,0.6906,0.6906,0.6906,0,0.6827,0.6833,0.6838,0.6842,0.6845,0.6852,0.6856,0.6857,0.6861,0.6867,0.6872,0.6879,0.6885,0.6897,0.69,0.6907,0.6906,0.6914,0.6907,0.6907,0.6907,0.6907,0.6907,0.6915,0.6915,0.6915,0.6915,0,0.6843,0.6843,0.6849,0.6856,0.6861,0.6866,0.687,0.6874,0.6875,0.6881,0.6888,0.6893,0.6902,0.6909,0.6916,0.6919,0.6918,0.6917,0.692,0.692,0.6919,0.692,0.6897,0.6917,0.6917,0.6917,0.6917,0.6917,0.6854,0.686,0.6864,0.6871,0.6875,0.688,0.6885,0.6888,0.6894,0.6902,0.6902,0.691,0.6915,0.6924,0.6928,0.6935,0.6932,0.6935,0.6936,0.6937,0.6938,0.6918,0.6936,0.6936,0.6936,0.6936,0.6936,0,0.687,0.6873,0.688,0.6887,0.6892,0.689,0.6896,0.6901,0.6908,0.6913,0.6919,0.6928,0.6935,0.6939,0.6946,0.6951,0.6951,0.6953,0.6953,0.6953,0.6939,0.6937,0.6953,0.6953,0.6953,0.6953,0.6953,0.6953,0.6879,0.6889,0.689,0.6902,0.6905,0.6913,0.6916,0.6921,0.6925,0.6935,0.6941,0.6943,0.6948,0.6955,0.6962,0.6963,0.6966,0.6969,0.697,0.6956,0.6954,0.6953,0.695,0.6969,0.6969,0.6983,0.6984,0.6984]},{"header":{"parameterUnit":"m.s-1","parameterCategory":1,"la1":30.2991,"la2":30.254,"lo1":-89.0895,"lo2":-89.0444,"dy":0.0017,"dx":0.0017,"nx":28,"ny":28,"refTime":"2024-10-08T21:00:00:Z","depth":0,"parameterNumber":3,"parameterNumberName":"V-component_of_WINDS"},"data":[0,0,0,0,0,0,0,0,0,0,0,0,0,0,0,0,0,0,0,0,0,0,0,0,0,0,0,0,0,0,0,0,0,0,0,0,0,0,0,0,0,0,0,0,0,0,0,0,0,0,0,0,0,0,0,0,0,0,-4.4066,-4.4066,0,-4.4056,-4.4055,-4.4055,-4.4022,-4.4021,-4.402,-4.402,-4.4003,-4.4003,-4.4004,0,0,0,0,0,0,0,0,0,0,0,0,0,-4.4055,-4.4055,-4.4066,-4.4066,-4.4066,-4.4056,-4.4055,-4.4055,-4.4022,-4.4021,-4.402,-4.4019,-4.4003,-4.4003,-4.4004,0,0,0,0,0,0,0,0,0,0,0,0,0,-4.4053,-4.4055,-4.4066,-4.4048,-4.4046,-4.4056,-4.4055,-4.4055,-4.4022,-4.4021,-4.402,-4.4019,-4.4003,-4.4003,-4.4004,-4.4028,0,0,-4.4005,-4.4005,0,0,0,0,0,0,0,0,-4.4053,-4.4054,-4.4051,-4.4049,-4.4048,-4.4039,-4.4045,-4.4046,-4.4022,-4.4031,-4.402,-4.4018,-4.4016,-4.4015,-4.4015,-4.4027,-4.4026,-4.4005,-4.4005,-4.4005,-4.4005,0,0,0,0,0,0,0,-4.4053,-4.4054,-4.4062,-4.4051,-4.4049,-4.404,-4.4038,-4.4045,-4.4029,-4.403,-4.4028,-4.4027,-4.4014,-4.4015,-4.4014,-4.4026,-4.4005,-4.4005,-4.4005,-4.4006,-4.4061,-4.4062,0,0,0,0,0,0,-4.4057,-4.4054,-4.4062,-4.4061,-4.4048,-4.4041,-4.4039,-4.4043,-4.4029,-4.4026,-4.4028,-4.4026,-4.4015,-4.4014,-4.4014,-4.4044,-4.4005,-4.4006,-4.4006,-4.406,-4.4061,-4.4062,0,0,0,0,0,0,-4.4057,-4.4058,-4.4063,-4.4057,-4.4057,-4.4042,-4.4046,-4.4043,-4.4044,-4.4028,-4.4024,-4.4032,-4.4014,-4.4013,-4.4026,-4.4043,-4.4006,-4.4006,-4.4058,-4.406,-4.4062,-4.4102,0,0,0,0,0,0,-4.4056,-4.4058,-4.4067,-4.4058,-4.4058,-4.4076,-4.4047,-4.4044,-4.4045,-4.4042,-4.403,-4.4027,-4.4013,-4.4025,-4.4026,-4.4042,-4.4006,-4.4056,-4.4059,-4.4061,-4.4099,-4.4105,-4.411,0,0,0,0,0,-4.4056,-4.4077,-4.4068,-4.4069,-4.407,-4.4077,-4.4077,-4.4061,-4.4046,-4.4056,-4.4046,-4.4028,-4.4041,-4.4027,-4.4027,-4.4044,-4.4055,-4.4058,-4.4061,-4.4097,-4.4104,-4.411,0,0,0,0,0,0,-4.4086,-4.4076,-4.4065,-4.4084,-4.4082,-4.4071,-4.4082,-4.4069,-4.4069,-4.4066,-4.4045,-4.4043,-4.4059,-4.4052,-4.4037,-4.4068,-4.4045,-4.4048,-4.4072,-4.4079,-4.4084,-4.4086,-4.4007,0,0,0,0,0,-4.4096,-4.4104,-4.4093,-4.4111,-4.4111,-4.4097,-4.41,-4.4088,-4.4084,-4.4083,-4.4074,-4.407,-4.4073,-4.4075,-4.4077,-4.4098,-4.4096,-4.411,-4.4116,-4.412,-4.4123,-4.4137,-4.4144,-4.4072,-4.4072,-4.4071,0,0,-4.4114,-4.4109,-4.4115,-4.4117,-4.4114,-4.4123,-4.4096,-4.4105,-4.4112,-4.4083,-4.4096,-4.409,-4.4083,-4.4102,-4.4109,-4.4096,-4.4143,-4.4124,-4.4128,-4.4128,-4.414,-4.4147,-4.4153,-4.4073,-4.4073,-4.4073,0,0,-4.4153,-4.415,-4.4166,-4.4164,-4.4161,-4.4153,-4.4157,-4.4149,-4.4144,-4.4157,-4.4137,-4.4143,-4.4148,-4.4146,-4.4146,-4.4187,-4.4171,-4.4188,-4.4217,-4.4231,-4.4236,-4.4241,-4.4258,-4.4265,-4.4191,-4.4191,-4.4191,0,-4.4176,-4.419,-4.4175,-4.4188,-4.419,-4.4167,-4.4184,-4.4182,-4.4179,-4.4181,-4.4167,-4.4177,-4.417,-4.4189,-4.42,-4.4199,-4.4204,-4.419,-4.4237,-4.4242,-4.4246,-4.4262,-4.4269,-4.4194,-4.4193,-4.4193,-4.4193,0,-4.422,-4.4229,-4.4243,-4.4244,-4.4247,-4.4261,-4.4249,-4.4253,-4.4243,-4.4235,-4.425,-4.4242,-4.4244,-4.4247,-4.4235,-4.4265,-4.4258,-4.4241,-4.4217,-4.4256,-4.4271,-4.4276,-4.4197,-4.4196,-4.4195,-4.4195,0,0,-4.4276,-4.4272,-4.4277,-4.4279,-4.4275,-4.4282,-4.4295,-4.43,-4.4305,-4.4304,-4.4316,-4.4323,-4.4309,-4.4308,-4.4295,-4.4307,-4.4344,-4.4289,-4.4289,-4.4302,-4.4379,-4.4393,-4.4401,-4.4333,-4.4334,-4.4335,-4.4381,0,-4.4315,-4.434,-4.4329,-4.4354,-4.4365,-4.4345,-4.4357,-4.4356,-4.435,-4.4357,-4.4349,-4.4355,-4.4335,-4.4335,-4.4345,-4.4337,-4.436,-4.4334,-4.4344,-4.4345,-4.4348,-4.4408,-4.4422,-4.4465,-4.4386,-4.4387,-4.4388,0,-4.4363,-4.4368,-4.4396,-4.4394,-4.4398,-4.4409,-4.4414,-4.4421,-4.4419,-4.4414,-4.4416,-4.4402,-4.4415,-4.4391,-4.4409,-4.4392,-4.4396,-4.4393,-4.4394,-4.4395,-4.437,-4.4413,-4.4478,-4.4486,-4.4396,-4.4396,-4.4395,0,-4.4405,-4.4418,-4.4437,-4.4439,-4.4436,-4.4445,-4.4444,-4.4442,-4.4446,-4.445,-4.4453,-4.4456,-4.4459,-4.4462,-4.4449,-4.4433,-4.447,-4.4445,-4.4467,-4.4468,-4.4476,-4.4476,-4.4546,-4.4476,-4.4476,-4.4476,-4.4475,0,-4.445,-4.4469,-4.4457,-4.4469,-4.4489,-4.4476,-4.4496,-4.4493,-4.4492,-4.4503,-4.4484,-4.4494,-4.4476,-4.4485,-4.4475,-4.4493,-4.4493,-4.449,-4.4487,-4.4493,-4.4494,-4.4496,-4.4493,-4.4477,-4.4477,-4.4477,-4.4476,0,-4.45,-4.4493,-4.4513,-4.451,-4.451,-4.4526,-4.4523,-4.4534,-4.4527,-4.4542,-4.4544,-4.4534,-4.4543,-4.4531,-4.4538,-4.4531,-4.4558,-4.4549,-4.4559,-4.4557,-4.4581,-4.458,-4.4655,-4.4666,-4.4588,-4.4588,-4.4589,0,-4.4531,-4.4545,-4.4545,-4.4553,-4.4554,-4.4565,-4.4571,-4.4558,-4.4564,-4.4566,-4.4577,-4.4586,-4.4592,-4.4608,-4.4601,-4.4607,-4.46,-4.4626,-4.46,-4.4606,-4.4603,-4.4603,-4.4606,-4.4631,-4.4632,-4.4633,-4.4634,0,-4.4586,-4.4583,-4.4593,-4.4602,-4.461,-4.4616,-4.462,-4.4627,-4.4614,-4.4622,-4.4633,-4.4639,-4.4648,-4.4657,-4.4662,-4.466,-4.4645,-4.4642,-4.4648,-4.4654,-4.466,-4.466,-4.4575,-4.464,-4.4639,-4.4639,-4.4639,-4.4638,-4.4629,-4.4642,-4.4646,-4.4658,-4.4661,-4.4666,-4.4678,-4.4674,-4.4684,-4.4693,-4.4684,-4.4699,-4.4699,-4.4704,-4.4704,-4.4715,-4.4704,-4.4711,-4.4714,-4.4716,-4.4722,-4.4658,-4.4715,-4.4715,-4.4715,-4.4715,-4.4715,0,-4.4686,-4.4688,-4.4699,-4.4708,-4.4718,-4.4706,-4.4711,-4.472,-4.4733,-4.4736,-4.4744,-4.4758,-4.4768,-4.4762,-4.477,-4.478,-4.4774,-4.4783,-4.4783,-4.4783,-4.473,-4.4725,-4.4788,-4.4788,-4.4788,-4.4788,-4.4788,-4.4788,-4.4717,-4.474,-4.4737,-4.4762,-4.4763,-4.4779,-4.4784,-4.4789,-4.4791,-4.4809,-4.4818,-4.4815,-4.4815,-4.4824,-4.4832,-4.483,-4.4835,-4.4847,-4.4843,-4.4794,-4.4786,-4.478,-4.4775,-4.4848,-4.4848,-4.4896,-4.4897,-4.4897]}]]